Coldwater, MI

3:11 AM EDT on March 25, 2017 (GMT -0400)
Branch County Memorial

Weather History for KOEB - April, 2014

Change the Weather History Date:

Friday, April 18, 2014

  Actual Average (KJYM) Record (KJYM)
Temperature  
Mean Temperature 52 °F -  
Max Temperature 62 °F 59 °F 86 °F (2002)
Min Temperature 41 °F 36 °F 19 °F (1983)
Degree Days  
Heating Degree Days 13    
Growing Degree Days 2 (Base 50)    
Moisture  
Dew Point 37 °F    
Average Humidity 61    
Maximum Humidity 95    
Minimum Humidity 30    
Precipitation  
Precipitation 0.00 in - - ()
Sea Level Pressure  
Sea Level Pressure 30.26 in    
Wind  
Wind Speed 3 mph (NW)    
Max Wind Speed 15 mph    
Max Gust Speed 22 mph    
Visibility 9 miles    
Events Rain    
Averages and records for this station are not official NWS values.
T = Trace of Precipitation, MM = Missing Value Source: NWS Daily Summary

Daily Weather History Graph

Daily Weather History Graph

Search for Another Location

Airport or City:

Trip Planner

Search our weather history database for the weather conditions in past years. The results will help you decide how hot, cold, wet, or windy it might be!

Date:

Astronomy

Apr. 18, 2014 Rise Set
Actual Time 6:55 AM EDT 8:24 PM EDT
Civil Twilight 6:25 AM EDT 8:53 PM EDT
Nautical Twilight 5:50 AM EDT 9:29 PM EDT
Astronomical Twilight 5:13 AM EDT 10:06 PM EDT
Moon No Moon Rise 9:14 AM EDT (4/18)
Length of Visible Light 14h 27m
Length of Day
13h 29m
Waning Gibbous, 87% of the Moon is Illuminated
Apr 18
Waning Gibbous
Apr 22
Last Quarter
Apr 29
New
May 6
First Quarter
May 14
Full

Hourly Weather History & Observations

Time (EDT) Temp. Windchill Dew Point Humidity Pressure Visibility Wind Dir Wind Speed Gust Speed Precip Events Conditions
12:14 AM 51.1 °F - 35.6 °F 55% 30.24 in 10.0 mi Calm Calm - N/A   Mostly Cloudy
12:34 AM 47.5 °F - 38.5 °F 71% 30.23 in 10.0 mi Calm Calm - N/A   Scattered Clouds
12:55 AM 48.9 °F - 37.9 °F 66% 30.24 in 10.0 mi Calm Calm - N/A   Mostly Cloudy
1:14 AM 47.7 °F - 39.6 °F 73% 30.24 in 10.0 mi Calm Calm - N/A   Overcast
1:35 AM 47.7 °F - 39.2 °F 72% 30.25 in 10.0 mi Calm Calm - N/A   Overcast
1:54 AM 47.5 °F - 39.2 °F 73% 30.24 in 10.0 mi Calm Calm - N/A   Overcast
2:14 AM 48.4 °F - 38.5 °F 69% 30.24 in 10.0 mi Calm Calm - N/A   Light Drizzle
2:35 AM 48.0 °F - 40.1 °F 74% 30.24 in 10.0 mi Calm Calm - N/A Rain Rain
2:54 AM 47.5 °F - 41.9 °F 81% 30.24 in 10.0 mi NW 5.8 mph - N/A Rain Light Rain
3:15 AM 48.7 °F - 39.6 °F 71% 30.23 in 10.0 mi NW 8.1 mph - N/A Rain Light Rain
3:35 AM 48.4 °F - 39.4 °F 71% 30.23 in 10.0 mi NNW 6.9 mph - N/A   Overcast
3:54 AM 47.8 °F - 39.2 °F 72% 30.23 in 10.0 mi Calm Calm - N/A   Overcast
4:15 AM 47.1 °F - 39.4 °F 74% 30.24 in 10.0 mi Calm Calm - N/A   Overcast
4:35 AM 46.9 °F - 40.1 °F 77% 30.24 in 10.0 mi Calm Calm - N/A   Light Drizzle
4:54 AM 46.0 °F - 39.9 °F 79% 30.24 in 10.0 mi Calm Calm - N/A   Overcast
5:15 AM 46.2 °F - 41.0 °F 82% 30.24 in 10.0 mi Calm Calm - N/A   Overcast
5:35 AM 45.1 °F - 41.9 °F 88% 30.24 in 10.0 mi Calm Calm - N/A   Overcast
5:54 AM 46.6 °F - 40.5 °F 79% 30.25 in 10.0 mi Calm Calm - N/A   Overcast
6:15 AM 45.5 °F - 41.2 °F 85% 30.25 in 10.0 mi Calm Calm - N/A   Overcast
6:35 AM 45.0 °F 43.5 °F 43.0 °F 93% 30.25 in 7.0 mi SE 3.5 mph - N/A   Drizzle
6:54 AM 45.5 °F 44.2 °F 42.8 °F 90% 30.25 in 7.0 mi ESE 3.5 mph - N/A Rain Light Rain
7:15 AM 44.6 °F 43.1 °F 43.2 °F 95% 30.26 in 7.0 mi SSE 3.5 mph - N/A Rain Light Rain
7:35 AM 45.9 °F 44.6 °F 42.6 °F 88% 30.26 in 7.0 mi SSE 3.5 mph - N/A Rain Rain
7:54 AM 45.9 °F - 43.2 °F 90% 30.27 in 5.0 mi Calm Calm - N/A Rain Light Rain
8:15 AM 46.4 °F - 43.9 °F 91% 30.27 in 5.0 mi Calm Calm - N/A Rain Light Rain
8:35 AM 46.4 °F - 43.9 °F 91% 30.27 in 5.0 mi Calm Calm - N/A   Overcast
8:54 AM 47.8 °F - 43.7 °F 86% 30.27 in 7.0 mi Calm Calm - N/A   Overcast
9:15 AM 49.8 °F - 45.3 °F 84% 30.27 in 7.0 mi West 3.5 mph - N/A   Overcast
9:34 AM 49.8 °F - 45.3 °F 84% 30.27 in 7.0 mi NW 4.6 mph - N/A   Overcast
9:55 AM 51.3 °F - 45.0 °F 79% 30.27 in 7.0 mi WNW 4.6 mph - N/A   Mostly Cloudy
10:15 AM 52.3 °F - 44.6 °F 75% 30.27 in 7.0 mi NNW 5.8 mph - N/A   Scattered Clouds
10:34 AM 53.2 °F - 44.2 °F 72% 30.27 in 7.0 mi WNW 3.5 mph - N/A   Clear
10:55 AM 53.8 °F - 43.7 °F 69% 30.28 in 7.0 mi NW 3.5 mph - N/A   Clear
11:14 AM 54.9 °F - 43.9 °F 66% 30.28 in 7.0 mi NNW 5.8 mph - N/A   Clear
11:35 AM 55.4 °F - 43.9 °F 65% 30.28 in 7.0 mi Calm Calm - N/A   Scattered Clouds
11:55 AM 57.9 °F - 43.0 °F 58% 30.28 in 10.0 mi WNW 5.8 mph - N/A   Mostly Cloudy
12:14 PM 58.1 °F - 42.1 °F 55% 30.28 in 10.0 mi WSW 5.8 mph - N/A   Mostly Cloudy
12:35 PM 59.0 °F - 39.9 °F 49% 30.28 in 10.0 mi West 9.2 mph - N/A   Mostly Cloudy
12:55 PM 58.3 °F - 38.1 °F 47% 30.28 in 10.0 mi West 9.2 mph - N/A   Scattered Clouds
1:14 PM 60.4 °F - 40.3 °F 47% 30.28 in 10.0 mi WNW 6.9 mph - N/A   Scattered Clouds
1:35 PM 60.3 °F - 39.0 °F 45% 30.28 in 10.0 mi West 9.2 mph 18.4 mph N/A   Scattered Clouds
1:55 PM 60.6 °F - 37.2 °F 42% 30.28 in 10.0 mi West 9.2 mph 18.4 mph N/A   Scattered Clouds
2:14 PM 61.5 °F - 37.2 °F 41% 30.27 in 10.0 mi NW 9.2 mph 17.3 mph N/A   Scattered Clouds
2:35 PM 61.9 °F - 36.1 °F 38% 30.27 in 10.0 mi NW 8.1 mph 17.3 mph N/A   Scattered Clouds
2:55 PM 61.0 °F - 34.5 °F 37% 30.27 in 10.0 mi North 4.6 mph - N/A   Scattered Clouds
3:14 PM 62.1 °F - 34.0 °F 35% 30.26 in 10.0 mi WNW 6.9 mph 16.1 mph N/A   Scattered Clouds
3:35 PM 62.6 °F - 33.3 °F 33% 30.26 in 10.0 mi West 11.5 mph - N/A   Clear
3:55 PM 62.6 °F - 31.3 °F 31% 30.25 in 10.0 mi West 11.5 mph 21.9 mph N/A   Clear
4:14 PM 62.8 °F - 30.9 °F 30% 30.25 in 10.0 mi West 11.5 mph 17.3 mph N/A   Clear
4:35 PM 62.8 °F - 30.7 °F 30% 30.25 in 10.0 mi West 12.7 mph 16.1 mph N/A   Clear
4:55 PM 62.4 °F - 32.5 °F 33% 30.25 in 10.0 mi WNW 9.2 mph 17.3 mph N/A   Scattered Clouds
5:14 PM 62.2 °F - 30.9 °F 31% 30.24 in 10.0 mi WNW 11.5 mph 17.3 mph N/A   Scattered Clouds
5:35 PM 61.7 °F - 32.7 °F 34% 30.24 in 10.0 mi NW 9.2 mph 18.4 mph N/A   Clear
5:54 PM 61.7 °F - 30.6 °F 31% 30.24 in 10.0 mi West 11.5 mph 16.1 mph N/A   Clear
6:14 PM 61.0 °F - 31.3 °F 33% 30.25 in 10.0 mi NW 12.7 mph 16.1 mph N/A   Clear
6:35 PM 59.9 °F - 31.3 °F 34% 30.25 in 10.0 mi WNW 15.0 mph - N/A   Clear
6:54 PM 58.5 °F - 29.8 °F 34% 30.25 in 10.0 mi WNW 9.2 mph - N/A   Clear
7:15 PM 57.6 °F - 28.8 °F 33% 30.25 in 10.0 mi NW 10.4 mph - N/A   Clear
7:34 PM 56.7 °F - 27.7 °F 33% 30.25 in 10.0 mi NW 10.4 mph - N/A   Clear
7:55 PM 55.0 °F - 30.7 °F 40% 30.26 in 10.0 mi NNW 9.2 mph - N/A   Clear
8:15 PM 52.9 °F - 32.2 °F 45% 30.26 in 10.0 mi NW 5.8 mph - N/A   Clear
8:34 PM 51.1 °F - 31.5 °F 47% 30.27 in 10.0 mi NW 10.4 mph 16.1 mph N/A   Clear
8:55 PM 49.5 °F - 32.2 °F 51% 30.28 in 10.0 mi NNW 8.1 mph - N/A   Clear
9:15 PM 47.8 °F - 33.1 °F 57% 30.28 in 10.0 mi NW 6.9 mph - N/A   Clear
9:34 PM 46.6 °F - 31.5 °F 56% 30.30 in 10.0 mi NNW 8.1 mph - N/A   Clear
9:55 PM 45.5 °F 41.8 °F 30.0 °F 55% 30.31 in 10.0 mi NNW 6.9 mph - N/A   Clear
10:14 PM 44.4 °F 41.2 °F 30.7 °F 59% 30.31 in 10.0 mi NNW 5.8 mph - N/A   Clear
10:35 PM 43.7 °F 41.1 °F 30.7 °F 60% 30.31 in 10.0 mi NW 4.6 mph - N/A   Clear
10:55 PM 42.4 °F 40.7 °F 30.4 °F 62% 30.31 in 10.0 mi NW 3.5 mph - N/A   Clear
11:14 PM 43.0 °F 41.3 °F 30.6 °F 62% 30.31 in 10.0 mi NW 3.5 mph - N/A   Clear
11:35 PM 42.3 °F 40.5 °F 31.8 °F 67% 30.31 in 10.0 mi NNW 3.5 mph - N/A   Clear
11:55 PM 41.4 °F 39.4 °F 31.6 °F 68% 30.32 in 10.0 mi NNW 3.5 mph - N/A   Clear